Location: Hawks Ness
(60.2333°N, 1.1667°W)
Time: 02:27:53
(UTC+00:00)

COSMO-SKYMED 1 - Pass Details

Date: 22 October 2019
Orbit: 621 x 623 km, 97.9° (Epoch: 12 November)

Event Time Altitude Azimuth Distance (km) Brightness Sun altitude
Rises 05:27:11 0° 180° (S) 2,898 6.0 -12.2°
Reaches altitude 10° 05:29:26 10° 186° (S) 1,996 5.1 -11.9°
Maximum altitude 05:33:38 47° 261° (W) 839 2.8 -11.4°
Drops below altitude 10° 05:37:51 10° 335° (NNW) 2,009 4.9 -10.9°
Sets 05:40:08 0° 342° (NNW) 2,920 5.8 -10.6°
